レモン彗星

C/2015 XY1 ( Lemmon )

English version
Home page
Updated on February 13, 2018

---------------------------------------------------------------------

・ プロフィール

発見日 2015年12月4日
発見光度 20.4等
発見者 J. A. Johnson (Mount Lemmon)

・ 写真集

・ 軌道要素

Epoch 2018 May 2.0 TT = JDT 2458240.5
T 2018 Apr. 29.90407 TT                                 MPCW
q   7.9280145            (2000.0)            P               Q
z  -0.0005238      Peri.  196.35105     +0.04277329     +0.86104996
 +/-0.0000010      Node   281.61656     +0.96478185     +0.09616203
e   1.0041524      Incl.  148.84772     +0.25955044     -0.49934540
From 374 observations 2015 Dec. 4-2018 Jan. 24, mean residual 0".5.

・ 光度変化

        m1 = -5.0 + 5 logΔ + 20.0 log r

---------------------------------------------------------------------

軌道要素はM.P.E.C. 2018-B155に掲載されたものです。
光度グラフはComet for Windowsで作成したものです。

---------------------------------------------------------------------

Copyright(C) Seiichi Yoshida (comet@aerith.net). All rights reserved.